TimeEDT,TemperatureF,Dew PointF,Humidity,Sea Level PressureIn,VisibilityMPH,Wind Direction,Wind SpeedMPH,Gust SpeedMPH,PrecipitationIn,Events,Conditions,WindDirDegrees,DateUTC
12:54 AM,57.0,45.0,64,29.75,10.0,SW,5.8,-,N/A,,Clear,230,2012-10-20 04:54:00
1:54 AM,55.0,45.0,69,29.74,10.0,SSW,5.8,-,N/A,,Clear,210,2012-10-20 05:54:00
2:54 AM,55.9,44.1,64,29.74,10.0,SW,6.9,-,N/A,,Clear,220,2012-10-20 06:54:00
3:54 AM,55.9,46.0,69,29.75,10.0,SW,8.1,-,N/A,,Clear,220,2012-10-20 07:54:00
4:54 AM,55.9,44.1,64,29.74,10.0,SW,9.2,-,N/A,,Clear,220,2012-10-20 08:54:00
5:54 AM,55.9,44.1,64,29.75,10.0,WSW,8.1,-,N/A,,Clear,240,2012-10-20 09:54:00
6:54 AM,54.0,43.0,66,29.77,10.0,WSW,4.6,-,N/A,,Clear,250,2012-10-20 10:54:00
7:54 AM,55.0,44.1,67,29.80,10.0,Calm,Calm,-,N/A,,Clear,0,2012-10-20 11:54:00
8:54 AM,59.0,45.0,60,29.79,10.0,WSW,6.9,-,N/A,,Clear,250,2012-10-20 12:54:00
9:54 AM,62.1,44.1,52,29.80,10.0,West,6.9,-,N/A,,Partly Cloudy,280,2012-10-20 13:54:00
10:54 AM,64.0,44.1,48,29.81,10.0,NW,5.8,-,N/A,,Partly Cloudy,310,2012-10-20 14:54:00
11:54 AM,66.0,45.0,47,29.82,10.0,Calm,Calm,-,N/A,,Partly Cloudy,0,2012-10-20 15:54:00
12:54 PM,69.1,44.1,40,29.79,10.0,SW,4.6,-,N/A,,Partly Cloudy,230,2012-10-20 16:54:00
1:54 PM,70.0,39.9,33,29.78,10.0,West,4.6,-,N/A,,Clear,280,2012-10-20 17:54:00
2:54 PM,71.1,41.0,34,29.77,10.0,West,6.9,-,N/A,,Clear,260,2012-10-20 18:54:00
3:54 PM,71.1,42.1,35,29.77,10.0,West,6.9,-,N/A,,Clear,270,2012-10-20 19:54:00
4:54 PM,71.1,44.1,38,29.78,10.0,NW,4.6,-,N/A,,Clear,310,2012-10-20 20:54:00
5:54 PM,64.9,48.0,54,29.80,10.0,Calm,Calm,-,N/A,,Clear,0,2012-10-20 21:54:00
6:54 PM,60.1,51.1,72,29.82,10.0,Calm,Calm,-,N/A,,Mostly Cloudy,0,2012-10-20 22:54:00
7:54 PM,62.1,48.9,62,29.85,10.0,WNW,3.5,-,N/A,,Scattered Clouds,290,2012-10-20 23:54:00
8:54 PM,57.0,50.0,77,29.87,10.0,WNW,3.5,-,N/A,,Scattered Clouds,300,2012-10-21 00:54:00
9:54 PM,60.1,45.0,57,29.89,10.0,NW,5.8,-,N/A,,Clear,310,2012-10-21 01:54:00
10:54 PM,59.0,43.0,55,29.91,10.0,NW,8.1,-,N/A,,Clear,310,2012-10-21 02:54:00
11:54 PM,57.0,41.0,55,29.91,10.0,NW,5.8,-,N/A,,Clear,320,2012-10-21 03:54:00